TimeCDT,TemperatureF,Dew PointF,Humidity,Sea Level PressureIn,VisibilityMPH,Wind Direction,Wind SpeedMPH,Gust SpeedMPH,PrecipitationIn,Events,Conditions,WindDirDegrees,DateUTC
12:12 AM,64.4,62.6,94,30.04,3.0,South,9.2,-,N/A,,Overcast,170,2013-09-18 05:12:00
12:28 AM,64.4,62.6,94,30.03,2.5,South,9.2,17.3,N/A,,Overcast,170,2013-09-18 05:28:00
12:36 AM,64.4,62.6,94,30.03,3.0,South,12.7,-,N/A,,Overcast,170,2013-09-18 05:36:00
12:53 AM,64.0,62.1,93,30.03,4.0,South,10.4,-,N/A,,Overcast,170,2013-09-18 05:53:00
1:29 AM,64.4,62.6,94,30.03,5.0,South,8.1,-,N/A,,Overcast,170,2013-09-18 06:29:00
1:53 AM,64.0,62.1,93,30.01,5.0,South,9.2,-,N/A,,Overcast,170,2013-09-18 06:53:00
2:53 AM,64.0,62.1,93,30.00,5.0,South,10.4,-,N/A,,Overcast,170,2013-09-18 07:53:00
3:53 AM,64.0,63.0,96,29.98,4.0,South,8.1,-,N/A,,Overcast,170,2013-09-18 08:53:00
4:02 AM,64.4,62.6,94,29.98,4.0,SSE,8.1,-,N/A,,Overcast,160,2013-09-18 09:02:00
4:53 AM,64.0,63.0,96,29.96,3.0,South,12.7,-,N/A,,Overcast,170,2013-09-18 09:53:00
5:53 AM,64.0,62.1,93,29.95,3.0,South,10.4,-,N/A,,Overcast,170,2013-09-18 10:53:00
6:53 AM,64.0,62.1,93,29.94,2.5,South,10.4,-,N/A,,Overcast,170,2013-09-18 11:53:00
7:09 AM,64.4,62.6,94,29.95,2.0,South,12.7,-,N/A,,Overcast,170,2013-09-18 12:09:00
7:53 AM,64.9,63.0,93,29.95,2.5,South,10.4,-,N/A,,Overcast,170,2013-09-18 12:53:00
8:04 AM,64.4,62.6,94,29.94,3.0,South,10.4,-,N/A,,Overcast,180,2013-09-18 13:04:00
8:36 AM,66.2,64.4,94,29.95,4.0,South,15.0,19.6,N/A,,Scattered Clouds,190,2013-09-18 13:36:00
8:53 AM,68.0,64.0,87,29.94,5.0,South,13.8,-,N/A,,Clear,190,2013-09-18 13:53:00
9:53 AM,73.9,66.0,76,29.93,9.0,South,17.3,20.7,N/A,,Clear,190,2013-09-18 14:53:00
10:53 AM,78.1,66.9,68,29.93,10.0,SSW,13.8,-,N/A,,Clear,200,2013-09-18 15:53:00
11:53 AM,82.0,66.9,60,29.91,10.0,South,15.0,23.0,N/A,,Mostly Cloudy,190,2013-09-18 16:53:00
12:53 PM,84.9,66.9,55,29.89,10.0,SSW,17.3,25.3,N/A,,Partly Cloudy,200,2013-09-18 17:53:00
1:53 PM,87.1,66.9,51,29.86,10.0,South,17.3,24.2,N/A,,Clear,180,2013-09-18 18:53:00
2:53 PM,88.0,66.9,49,29.83,10.0,SSW,16.1,24.2,N/A,,Scattered Clouds,200,2013-09-18 19:53:00
3:53 PM,88.0,66.0,48,29.80,10.0,SSW,18.4,25.3,N/A,,Clear,200,2013-09-18 20:53:00
4:53 PM,87.1,66.0,49,29.79,10.0,South,18.4,28.8,N/A,,Clear,180,2013-09-18 21:53:00
5:53 PM,87.1,66.0,49,29.78,10.0,South,16.1,23.0,N/A,,Clear,190,2013-09-18 22:53:00
6:53 PM,84.0,66.9,56,29.80,10.0,South,11.5,-,N/A,,Clear,180,2013-09-18 23:53:00
7:53 PM,81.0,66.9,62,29.81,10.0,South,11.5,-,N/A,,Clear,180,2013-09-19 00:53:00
8:53 PM,79.0,66.9,66,29.83,10.0,South,10.4,-,N/A,,Clear,180,2013-09-19 01:53:00
9:53 PM,77.0,66.0,69,29.84,10.0,South,10.4,-,N/A,,Clear,170,2013-09-19 02:53:00
10:53 PM,75.0,64.9,71,29.84,10.0,South,11.5,-,N/A,,Clear,180,2013-09-19 03:53:00
11:53 PM,73.9,64.9,73,29.84,10.0,South,11.5,-,N/A,,Clear,180,2013-09-19 04:53:00